This is the latest recevied weather packets stored in our database for station/object W5CRT. If no packets are shown the sender has not sent any weather packets the latest 10 day(s).
| Time | Temp. | Humidity | Pressure | Rain* | Wind** | Luminosity | Snow |
|---|---|---|---|---|---|---|---|
| 1777416843 | 25° C | 86% | 1006.5 hPa | 0 mm | - | 12 W/m² | - |
| 1777416539 | 25° C | 86% | 1006.6 hPa | 0 mm | - | 11 W/m² | - |
| 1777416236 | 25.56° C | 86% | 1007.3 hPa | 0 mm | - | 9 W/m² | - |
| 1777415935 | 25.56° C | 86% | 1007.4 hPa | 0 mm | - | 9 W/m² | - |
| 1777415631 | 25.56° C | 86% | 1007.4 hPa | 0 mm | - | 9 W/m² | - |
| 1777415326 | 25.56° C | 85% | 1007.7 hPa | 0 mm | - | 9 W/m² | - |
| 1777415022 | 25.56° C | 85% | 1007.3 hPa | 0 mm | - | 10 W/m² | - |
| 1777414721 | 25.56° C | 85% | 1007.8 hPa | 0 mm | - | 11 W/m² | - |
| 1777414417 | 25.56° C | 85% | 1007.8 hPa | 0 mm | - | 12 W/m² | - |
| 1777414116 | 25.56° C | 85% | 1007.8 hPa | 0 mm | - | 14 W/m² | - |
| 1777413812 | 25.56° C | 85% | 1008.7 hPa | 0 mm | - | 17 W/m² | - |
| 1777413507 | 25.56° C | 84% | 1009 hPa | 0 mm | - | 16 W/m² | - |
| 1777413204 | 25.56° C | 84% | 1009.5 hPa | 0 mm | - | 11 W/m² | - |
| 1777412899 | 25.56° C | 84% | 1009.3 hPa | 0 mm | - | 12 W/m² | - |
| 1777412599 | 25.56° C | 84% | 1008.8 hPa | 0 mm | - | 7 W/m² | - |
| 1777412296 | 25.56° C | 84% | 1008.9 hPa | 0 mm | - | 6 W/m² | - |
| 1777411992 | 25.56° C | 84% | 1009.2 hPa | 0 mm | - | 6 W/m² | - |
| 1777411691 | 25.56° C | 84% | 1008.9 hPa | 0 mm | - | 6 W/m² | - |
| 1777411386 | 26.11° C | 84% | 1008.8 hPa | 0 mm | - | 10 W/m² | - |
| 1777411086 | 26.11° C | 83% | 1008.2 hPa | 0 mm | - | 17 W/m² | - |
| 1777410781 | 26.11° C | 83% | 1008.2 hPa | 0 mm | - | 17 W/m² | - |
| 1777410479 | 26.11° C | 83% | 1008.3 hPa | 0 mm | - | 18 W/m² | - |
| 1777410178 | 26.11° C | 83% | 1008.5 hPa | 0 mm | - | 26 W/m² | - |
| 1777409874 | 26.11° C | 83% | 1008.6 hPa | 0 mm | - | 30 W/m² | - |
| 1777409570 | 26.11° C | 82% | 1008.9 hPa | 0 mm | - | 23 W/m² | - |
* Rain latest hour (hover to see other rain measurements)
** Current wind speed in m/s (hover to see current wind gust speed)